Location: Cormont
(50.5693°N, 1.7416°E)
Time: 23:23:25
(UTC+00:00)

Cosmos 1892 - Pass Details

Date: 21 October 2019
Orbit: 503 x 526 km, 82.5° (Epoch: 11 November)

Event Time Altitude Azimuth Distance (km) Brightness Sun altitude
Rises 19:02:19 0° 351° (N) 2,638 6.5 -21.7°
Reaches altitude 10° 19:04:29 10° 354° (N) 1,743 5.5 -22.0°
Enters shadow 19:06:56 37° 7° (N) 805 3.6 -22.4°
